Regional Weather Roundup
Issued by NWS

Home | Current Version | Previous Version | Graphics & Text | Print | Product List | Glossary On
Versions: 1 2 3 4 5 6 7 8 9 10 11 12 13 14 15 16 17 18 19 20 21 22 23 24 25 26 27 28 29 30 31 32 33 34 35 36 37 38 39 40 41 42 43 44 45 46 47 48 49 50
000
ASUS43 KBIS 221002
RWRND

NORTH DAKOTA REGIONAL WEATHER ROUNDUP
NATIONAL WEATHER SERVICE BISMARCK ND
400 AM CST WED NOV 22 2017

NOTE: "FAIR" INDICATES FEW OR NO CLOUDS BELOW 12,000 FEET WITH NO
SIGNIFICANT WEATHER AND/OR OBSTRUCTIONS TO VISIBILITY.


NDZ001>003-009>011-017-221100-
NORTHWEST NORTH DAKOTA

CITY           SKY/WX    TMP DP  RH WIND       PRES   REMARKS
WILLISTON      CLOUDY    20   9  62 S6        29.95F WCI  12
MINOT          CLOUDY    11   6  81 SE7       30.04F WCI   0
MINOT AFB      CLOUDY    10   6  83 SE6       30.03F WCI   0
$$

NDZ018>021-031>035-040>046-221100-
SOUTHWEST NORTH DAKOTA

CITY           SKY/WX    TMP DP  RH WIND       PRES   REMARKS
BISMARCK       CLEAR     13  10  88 SE7       30.14F WCI   3
DICKINSON      CLOUDY    23  13  65 S17       29.95F WCI   9
GARRISON         N/A     17  11  77 SE9       30.06F WCI   6
HETTINGER ARPT CLOUDY    22  13  68 S8        30.05F WCI  12
$$

NDZ004>008-012>016-024-026-027-054-221100-
NORTHEAST NORTH DAKOTA

CITY           SKY/WX    TMP DP  RH WIND       PRES   REMARKS
GRAND FORKS    CLOUDY     8   4  83 SW8       30.23F WCI  -4
DEVILS LAKE    CLOUDY     9   5  84 S9        30.14F WCI  -4
$$

NDZ022-023-025-028>030-036>039-047>053-221100-
SOUTHEAST NORTH DAKOTA

CITY           SKY/WX    TMP DP  RH WIND       PRES   REMARKS
FARGO          CLOUDY     9   5  84 S6        30.27F WCI  -1
JAMESTOWN      CLOUDY     6   3  87 S7        30.18F WCI  -6
$$





USA.gov is the U.S. government's official web portal to all federal, state and local government web resources and services.